Wind_Speed
12 13 13 14 15 15 15 16 16 16 17 17 16 16 16 16 16 16 16 16 15 14 14 13 13 13 13 13 13 13 13 13 13 13 14 14 14 14 14 14 14 14 14 14
12 13 14 15 16 16 16 16 16 17 17 17 17 17 17 17 17 17 17 17 16 15 15 14 14 14 15 14 14 13 13 14 14 14 15 15 15 15 15 15 15 15 15 15
13 13 14 15 16 16 16 15 16 16 16 17 17 17 17 16 17 17 18 17 17 17 16 16 16 16 16 16 16 15 15 15 15 16 16 16 16 17 16 16 16 16 16 16
12 13 14 15 16 16 15 15 15 15 16 16 16 16 17 16 16 16 17 17 18 17 17 16 16 16 16 16 17 16 16 17 17 17 17 17 17 17 17 17 17 17 17 17
12 13 13 14 14 15 15 15 15 15 15 16 15 17 16 16 16 16 16 17 17 17 18 17 16 17 17 17 16 17 17 18 18 18 17 18 18 18 18 18 18 19 19 19
12 12 12 13 13 14 15 16 16 16 16 16 14 15 15 15 16 16 16 16 17 17 18 17 17 17 17 17 17 17 18 18 18 19 19 19 19 19 19 19 19 19 19 19
12 12 12 12 13 13 14 15 16 16 16 16 14 15 14 14 15 16 16 17 17 17 18 18 18 18 18 18 18 18 18 19 19 19 19 20 20 20 20 20 20 20 20 20
13 13 13 13 13 13 13 14 15 17 17 16 15 16 15 14 15 17 17 17 17 18 18 18 18 18 18 18 18 19 19 19 20 20 20 20 21 21 22 22 22 21 21 22
13 13 14 14 14 14 14 15 16 17 18 18 17 16 16 16 16 17 18 18 19 19 19 19 19 19 19 19 19 19 19 20 20 21 21 22 22 23 23 23 23 23 23 23
14 15 15 15 15 15 15 16 17 18 19 20 18 17 17 17 18 17 19 19 20 20 19 19 19 20 20 20 20 21 21 21 22 22 22 23 23 23 24 24 25 24 24 24
16 16 16 16 16 15 16 17 18 19 21 21 21 19 19 19 19 19 19 20 20 21 20 21 21 21 21 21 21 22 22 22 22 22 22 23 24 24 24 25 25 25 25 24
18 18 17 17 17 17 17 18 18 20 21 22 22 19 19 20 19 20 20 20 21 22 22 22 23 22 22 22 22 22 22 23 24 24 24 24 24 24 24 24 24 25 25 24
18 19 18 18 18 18 18 18 19 20 21 21 22 21 20 20 20 20 20 20 21 23 23 23 24 23 22 22 22 22 22 24 24 25 25 25 24 24 24 24 24 24 24 24
19 20 20 19 19 19 19 19 20 21 21 22 22 22 21 21 20 20 20 21 22 23 24 24 24 24 23 23 23 22 22 24 25 26 26 25 25 25 25 25 25 24 24 25
20 20 20 20 20 21 20 20 21 22 22 23 23 23 22 23 21 21 22 22 23 24 25 25 24 24 24 24 24 24 24 25 25 25 25 25 25 25 26 25 25 25 25 25
21 21 21 21 21 22 22 22 23 23 24 24 25 24 23 24 23 24 24 24 25 24 25 25 25 25 25 25 26 26 25 25 26 26 25 26 26 26 26 26 26 26 26 26
22 23 23 22 23 23 23 22 24 25 24 25 26 25 24 25 26 25 25 25 26 26 25 25 25 26 27 27 27 26 26 26 27 27 26 26 26 26 26 26 26 27 27 27
23 23 24 24 24 25 24 24 25 25 24 25 26 26 26 27 27 27 27 27 27 27 27 27 27 27 28 28 28 28 28 28 28 28 28 27 27 27 27 27 27 28 28 28
23 24 24 25 25 25 24 25 26 25 25 25 26 26 27 28 29 28 28 28 28 28 28 28 28 29 29 29 30 31 30 29 29 29 29 28 28 29 29 29 29 29 29 29
24 24 25 26 26 26 25 25 26 27 26 26 26 27 28 30 30 28 29 29 30 30 30 30 30 30 31 31 31 31 32 31 31 31 31 30 30 30 30 30 30 30 30 30
24 25 26 27 27 27 27 27 27 28 27 28 28 28 29 29 30 29 30 31 31 32 32 32 32 32 32 33 33 33 33 33 33 33 33 32 32 31 31 31 31 31 31 31
26 26 27 28 28 28 28 28 28 28 29 29 30 29 29 29 30 30 31 32 33 33 33 33 33 33 33 33 34 33 33 33 33 34 34 33 33 32 32 31 31 31 31 31
28 28 28 28 29 30 29 29 29 30 30 30 31 31 31 30 31 31 33 34 34 33 33 33 34 34 34 34 34 34 33 33 33 33 33 33 33 33 33 32 32 32 32 32
30 31 31 30 30 30 29 30 31 32 31 31 31 31 32 32 32 32 33 34 34 33 33 33 34 34 34 34 34 34 34 33 33 33 33 33 33 34 33 33 33 32 33 33
31 32 31 31 31 32 31 32 33 34 34 33 33 33 33 33 33 32 33 33 33 33 33 33 34 34 34 34 34 34 34 34 34 34 34 34 34 34 34 33 33 33 33 33
30 31 32 32 32 32 32 33 33 34 34 34 35 34 35 35 35 33 32 32 33 33 33 33 34 34 34 33 33 34 34 35 35 34 34 34 34 34 34 33 34 33 34 33
Wind_Direction
274 273 273 271 269 268 266 264 261 258 258 259 259 257 254 254 254 254 254 253 251 248 248 249 253 257 261 264 264 262 265 266 267 270 271 272 274 274 275 277 279 280 280 279
276 275 274 273 272 271 271 269 265 261 260 260 260 258 256 254 254 255 255 255 252 250 250 251 252 255 258 262 264 262 265 267 267 268 269 270 273 274 274 275 276 276 277 279
279 278 276 275 273 272 272 269 264 259 258 259 260 258 258 255 254 255 256 257 256 255 254 253 254 254 257 260 262 262 264 265 267 267 270 272 274 274 276 277 275 275 277 280
282 281 279 276 273 271 269 266 264 261 260 260 261 259 256 256 253 254 254 256 257 257 257 258 258 256 257 262 262 262 264 265 267 269 271 272 274 274 275 276 274 276 280 280
289 286 280 275 272 270 268 264 264 264 263 261 260 262 256 255 251 252 255 255 255 256 256 258 259 259 259 262 264 266 268 268 269 270 271 274 275 275 275 276 275 277 278 280
290 284 281 280 276 273 271 267 263 262 263 260 260 263 258 258 254 252 253 255 256 256 257 258 258 260 262 263 266 268 269 270 270 271 272 274 276 277 277 277 276 277 279 279
289 286 284 282 280 277 275 272 266 261 260 262 264 263 262 265 262 256 255 255 256 257 258 258 259 263 266 267 268 270 271 270 271 271 272 274 276 278 278 278 279 279 279 278
289 288 288 285 282 280 276 273 268 266 264 265 266 266 267 269 266 258 253 254 256 259 260 261 264 265 266 267 269 270 272 273 273 273 274 274 276 276 276 277 278 279 280 279
288 288 288 285 283 279 275 271 269 267 267 267 269 269 268 268 269 262 256 255 257 260 261 264 267 267 266 268 270 271 273 274 275 275 274 275 276 276 275 275 277 279 281 281
289 286 284 283 281 278 276 276 273 269 270 270 270 271 271 271 269 265 259 258 258 260 263 268 270 269 270 270 271 272 274 276 278 276 276 278 278 277 275 275 275 277 279 280
285 284 282 279 279 279 275 274 275 273 272 272 273 274 275 271 268 265 262 260 260 260 265 270 273 273 272 273 274 274 275 276 278 279 279 280 280 279 278 277 276 277 278 278
283 283 281 279 279 278 275 274 276 276 275 275 276 275 276 272 269 265 262 260 261 262 264 269 274 275 275 275 274 275 275 276 278 279 280 281 281 281 281 278 278 278 278 278
282 282 281 278 276 277 277 277 278 279 278 278 279 279 277 276 272 265 262 260 262 264 266 269 273 275 276 274 273 274 275 278 280 281 282 282 281 281 279 277 278 279 279 279
281 279 279 279 279 279 278 278 278 279 281 281 282 281 277 277 274 269 265 263 262 264 266 268 271 272 274 274 272 272 274 277 280 282 283 282 281 280 278 277 277 278 279 280
282 279 278 279 279 279 278 278 279 280 282 281 281 280 278 278 274 271 267 266 264 264 266 268 269 270 272 272 272 274 274 277 280 281 282 281 279 278 277 278 278 278 279 280
282 281 280 279 278 277 276 277 278 281 282 282 280 279 278 275 274 272 269 268 267 267 268 269 268 269 270 270 271 274 276 279 280 281 281 280 279 277 277 277 278 278 279 280
281 282 280 280 278 277 277 278 278 280 281 282 281 279 277 274 272 272 272 269 267 268 269 270 270 270 271 271 271 273 275 279 281 283 282 280 278 276 277 277 278 278 278 279
282 282 281 281 280 279 282 280 280 280 281 281 280 279 276 275 274 270 271 270 268 269 269 270 271 272 273 271 272 273 274 277 280 282 282 280 278 277 276 276 278 278 278 279
281 282 283 283 283 284 284 284 283 281 283 282 281 279 276 275 275 275 272 272 271 272 271 271 272 273 274 272 273 274 274 276 279 280 281 280 278 278 276 276 277 277 278 279
280 281 282 284 285 286 287 286 286 283 282 282 281 279 277 276 274 275 275 273 274 273 273 272 272 273 274 273 273 273 274 275 276 277 278 278 277 277 277 276 276 277 276 277
279 280 280 283 285 285 287 287 287 286 285 283 282 280 280 278 276 276 275 274 274 274 273 273 273 273 274 274 273 273 274 274 275 276 276 276 275 275 276 276 277 277 277 277
279 280 280 282 284 285 287 288 286 285 285 283 282 280 279 280 278 277 277 275 275 275 274 273 273 273 273 274 274 274 275 275 276 276 276 276 274 274 275 276 276 277 277 276
278 279 281 282 284 285 286 286 286 286 286 284 283 281 280 280 279 279 279 279 278 277 276 275 274 273 273 273 273 273 274 275 275 275 275 276 275 275 275 275 276 275 275 276
277 278 281 283 283 284 283 283 283 284 285 284 285 283 281 281 281 281 281 280 279 277 276 275 275 275 274 273 273 272 273 274 275 275 276 276 276 276 275 274 274 275 276 276
280 279 280 281 282 283 282 282 283 284 283 284 284 283 281 280 281 281 280 279 279 278 276 275 274 275 275 274 272 271 272 273 274 275 274 274 275 276 276 274 274 275 276 277
279 279 280 281 282 282 282 281 282 283 284 283 284 284 282 280 278 279 279 278 278 277 275 273 273 274 274 272 270 271 273 274 274 274 274 273 274 274 275 274 274 275 276 276
Height
5824 5825 5824 5824 5824 5824 5824 5824 5824 5825 5825 5826 5826 5827 5828 5829 5829 5830 5831 5832 5832 5833 5834 5834 5835 5836 5836 5836 5836 5836 5836 5836 5836 5836 5836 5835 5835 5835 5834 5834 5834 5833 5833 5832
5822 5821 5821 5820 5820 5819 5819 5819 5819 5820 5820 5821 5822 5823 5824 5824 5825 5826 5827 5828 5829 5829 5830 5831 5831 5832 5833 5833 5832 5832 5832 5832 5832 5832 5832 5832 5831 5831 5831 5830 5830 5829 5829 5828
5818 5818 5816 5815 5815 5815 5815 5815 5815 5815 5816 5816 5817 5818 5819 5820 5821 5822 5823 5824 5825 5826 5826 5827 5827 5828 5828 5829 5828 5829 5828 5829 5828 5828 5828 5828 5827 5827 5826 5826 5825 5825 5824 5824
5814 5813 5812 5811 5810 5810 5810 5810 5810 5810 5811 5811 5813 5813 5815 5816 5816 5817 5818 5819 5820 5821 5822 5823 5823 5824 5824 5824 5824 5824 5824 5824 5824 5823 5823 5823 5823 5822 5822 5822 5821 5820 5820 5819
5810 5809 5808 5807 5807 5806 5806 5806 5806 5806 5807 5807 5808 5808 5811 5811 5812 5813 5814 5815 5816 5817 5818 5819 5819 5819 5820 5820 5820 5819 5819 5819 5819 5818 5818 5818 5818 5817 5817 5816 5816 5815 5815 5814
5807 5805 5804 5804 5803 5803 5802 5802 5802 5802 5803 5804 5805 5805 5806 5806 5807 5808 5809 5810 5812 5812 5813 5814 5814 5815 5815 5815 5815 5815 5814 5814 5813 5813 5813 5813 5812 5812 5811 5811 5811 5810 5809 5809
5804 5803 5802 5801 5800 5800 5799 5799 5798 5798 5798 5800 5801 5800 5802 5802 5803 5803 5805 5806 5807 5808 5809 5809 5810 5810 5810 5810 5810 5810 5810 5809 5808 5808 5808 5807 5807 5806 5806 5805 5805 5804 5804 5803
5801 5801 5799 5798 5797 5796 5796 5796 5796 5796 5795 5796 5796 5796 5798 5798 5798 5798 5800 5801 5802 5803 5804 5805 5805 5805 5805 5805 5805 5805 5804 5804 5803 5803 5802 5802 5801 5800 5799 5799 5798 5798 5797 5796
5798 5797 5796 5795 5794 5794 5793 5792 5793 5792 5791 5792 5792 5793 5794 5794 5794 5794 5795 5796 5797 5798 5799 5800 5800 5800 5800 5800 5800 5799 5799 5798 5798 5797 5796 5795 5795 5794 5793 5792 5792 5791 5790 5789
5794 5794 5793 5792 5791 5790 5790 5789 5789 5788 5787 5787 5788 5789 5790 5790 5790 5790 5790 5791 5792 5793 5794 5794 5794 5794 5794 5794 5794 5794 5793 5792 5791 5790 5790 5789 5788 5787 5786 5785 5785 5784 5783 5782
5791 5790 5790 5788 5787 5787 5787 5786 5784 5784 5783 5783 5782 5786 5784 5784 5784 5785 5785 5786 5786 5787 5788 5789 5789 5789 5789 5788 5788 5787 5787 5786 5785 5784 5783 5782 5781 5780 5778 5778 5777 5776 5775 5775
5786 5785 5784 5784 5783 5782 5782 5781 5780 5780 5779 5778 5777 5782 5779 5779 5779 5779 5779 5780 5781 5782 5782 5783 5783 5783 5783 5782 5781 5781 5780 5779 5778 5777 5776 5775 5774 5773 5771 5771 5770 5769 5768 5767
5781 5780 5780 5779 5781 5779 5777 5776 5776 5775 5774 5773 5772 5776 5774 5774 5773 5773 5774 5775 5776 5776 5777 5777 5777 5777 5776 5776 5775 5774 5774 5773 5772 5771 5769 5768 5767 5766 5764 5763 5763 5762 5761 5760
5776 5775 5775 5775 5774 5773 5772 5772 5771 5770 5769 5768 5768 5768 5769 5768 5767 5768 5768 5769 5769 5770 5770 5770 5770 5770 5770 5769 5768 5768 5767 5766 5765 5764 5762 5761 5760 5758 5757 5756 5756 5755 5754 5753
5770 5769 5769 5768 5768 5767 5767 5766 5765 5764 5763 5763 5763 5762 5762 5762 5762 5762 5762 5762 5763 5763 5763 5763 5763 5763 5763 5762 5762 5761 5760 5759 5758 5756 5755 5754 5753 5752 5750 5749 5748 5748 5747 5746
5764 5763 5763 5763 5762 5761 5760 5760 5759 5759 5758 5757 5756 5756 5756 5755 5755 5755 5756 5756 5756 5756 5756 5756 5756 5756 5755 5755 5754 5754 5753 5752 5751 5749 5748 5747 5745 5744 5743 5742 5741 5741 5740 5739
5758 5757 5757 5756 5756 5754 5754 5755 5753 5753 5752 5751 5750 5751 5750 5749 5749 5748 5749 5749 5749 5749 5749 5749 5749 5748 5748 5747 5747 5746 5745 5744 5743 5742 5740 5739 5738 5737 5736 5735 5734 5733 5733 5732
5752 5751 5750 5749 5749 5748 5751 5748 5746 5745 5745 5743 5742 5742 5742 5742 5741 5741 5741 5741 5741 5741 5741 5741 5740 5740 5740 5739 5738 5738 5737 5736 5735 5734 5733 5731 5730 5729 5728 5727 5726 5726 5725 5724
5746 5744 5743 5742 5741 5741 5742 5740 5739 5738 5737 5736 5735 5734 5734 5734 5733 5734 5733 5733 5733 5732 5732 5732 5732 5731 5730 5730 5729 5729 5728 5727 5726 5725 5724 5723 5722 5721 5720 5719 5718 5717 5716 5715
5739 5738 5737 5735 5733 5733 5735 5733 5731 5731 5730 5729 5727 5726 5726 5725 5725 5726 5725 5724 5724 5724 5723 5723 5723 5722 5721 5720 5720 5719 5719 5718 5717 5716 5715 5714 5713 5712 5711 5710 5709 5708 5707 5706
5732 5730 5730 5728 5726 5725 5726 5725 5724 5724 5723 5721 5719 5718 5717 5716 5716 5717 5716 5715 5715 5715 5714 5714 5713 5713 5712 5711 5710 5710 5709 5709 5708 5707 5706 5705 5704 5703 5702 5700 5699 5699 5698 5697
5724 5723 5722 5721 5719 5720 5718 5716 5716 5715 5713 5711 5710 5709 5708 5707 5707 5706 5706 5706 5705 5705 5704 5704 5703 5703 5702 5701 5701 5700 5699 5699 5698 5697 5695 5694 5693 5692 5691 5691 5690 5688 5688 5687
5716 5716 5714 5713 5713 5710 5709 5708 5706 5705 5704 5703 5701 5700 5699 5699 5698 5697 5697 5696 5695 5694 5694 5693 5692 5692 5691 5691 5690 5689 5688 5688 5687 5686 5685 5684 5683 5682 5681 5681 5680 5679 5678 5677
5708 5707 5705 5704 5703 5702 5700 5699 5697 5696 5695 5693 5692 5691 5690 5689 5688 5688 5687 5686 5685 5684 5683 5682 5681 5681 5681 5680 5679 5678 5678 5677 5676 5676 5675 5674 5673 5672 5671 5670 5670 5669 5668 5667
5699 5698 5696 5695 5694 5693 5692 5690 5688 5686 5685 5683 5682 5681 5680 5679 5678 5677 5676 5675 5674 5673 5672 5671 5671 5670 5670 5669 5668 5667 5667 5666 5666 5665 5664 5663 5662 5661 5661 5660 5659 5659 5658 5657
5690 5688 5687 5687 5685 5683 5683 5681 5679 5677 5676 5674 5672 5671 5670 5668 5667 5666 5665 5664 5663 5662 5661 5661 5660 5659 5658 5658 5657 5657 5656 5655 5654 5654 5653 5652 5652 5651 5650 5650 5649 5648 5648 5647